Location: Les Salelles
(44.4192°N, 4.1044°E)
Time: 10:29:24
(UTC+00:00)

X-37B - Pass Details

Date: 20 January 2021
Orbit: 383 x 391 km, 45.0° (Epoch: 27 February)

Event Time Altitude Azimuth Distance (km) Brightness Sun altitude
Rises 19:04:20 0° 254° (WSW) 2,271 5.7 -26.1°
Reaches altitude 10° 19:06:24 10° 253° (WSW) 1,419 4.4 -26.4°
Enters shadow 19:07:36 21° 252° (WSW) 944 3.2 -26.6°
